PBO Station Position Time Series. Reference Frame : NAM14
Format Version,1.1.0
4-character ID,P407
Station name,Seaside22GOR2006
Begin Date, 2006-03-02
End Date, 2019-10-07
Release Date, 2019-10-08
Reference position, 45.9546494666 North Latitude, -123.9310057268 East Longitude, -13.09865 meters elevation,
Date, North (mm), East (mm), Vertical (mm), North Std. Deviation (mm), East Std. Deviation (mm),              Vertical Std. Deviation (mm), Quality,
2006-03-02,0.00, 0.00, 0.00, 2.32, 1.66, 7.58, repro,
2006-03-03,-4.67, -2.93, 3.98, 2.47, 1.75, 7.91, repro,
2006-03-04,-3.84, -2.22, -4.39, 2.37, 1.67, 7.66, repro,
2006-03-05,-0.93, -2.70, 2.87, 2.39, 1.68, 7.65, repro,
2006-03-06,-0.73, -1.62, 5.64, 2.42, 1.78, 7.85, repro,
2006-03-07,-4.42, -2.86, -2.11, 2.39, 1.74, 7.94, repro,
2006-03-08,-2.84, -2.82, 5.15, 2.34, 1.68, 7.67, repro,
2006-03-09,-8.55, -2.38, 11.55, 2.40, 1.73, 7.78, repro,
2006-03-10,-3.68, -3.97, -0.04, 2.36, 1.71, 7.79, repro,
2006-03-11,-5.26, -3.41, -2.59, 2.38, 1.72, 7.78, repro,
2006-03-12,-2.79, -2.36, -1.88, 2.37, 1.72, 7.76, repro,
2006-03-13,-2.89, -2.28, -1.11, 2.41, 1.73, 7.89, repro,
2006-03-14,-1.71, -1.63, 0.99, 2.40, 1.71, 7.79, repro,
2006-03-15,-4.05, -1.58, -6.79, 2.42, 1.73, 7.89, repro,
2006-03-16,-3.37, -2.84, -0.74, 2.48, 1.79, 8.23, repro,
2006-03-17,-3.03, -2.77, -8.45, 2.46, 1.79, 8.18, repro,
2006-03-18,-2.60, -2.86, -5.33, 2.51, 1.78, 8.07, repro,
2006-03-19,-3.26, -2.11, 2.09, 2.42, 1.75, 8.01, repro,
2006-03-20,-4.36, -2.43, -0.64, 2.38, 1.73, 7.91, repro,
2006-03-21,-3.63, -2.42, 0.33, 2.41, 1.74, 7.92, repro,
2006-03-22,-3.66, -2.20, -1.55, 2.40, 1.74, 7.88, repro,
2006-03-23,-1.19, -2.31, -7.33, 2.52, 1.82, 8.09, repro,
2006-03-24,-0.10, -1.42, -0.32, 2.48, 1.81, 8.14, repro,
2006-03-25,-2.99, -3.57, 8.84, 2.45, 1.75, 7.92, repro,
2006-03-26,-4.45, -2.47, 3.11, 2.43, 1.76, 7.96, repro,
2006-03-27,-5.49, -4.58, 0.38, 2.53, 1.79, 8.05, repro,
2006-03-28,-4.91, -4.32, -1.76, 2.37, 1.70, 7.62, repro,
2006-03-29,-3.97, -3.56, 5.62, 2.31, 1.68, 7.56, repro,
2006-03-30,-3.76, -1.99, 1.42, 2.30, 1.68, 7.55, repro,
2006-03-31,-3.01, -2.48, -8.47, 2.29, 1.69, 7.66, repro,
2006-04-01,-2.94, -4.09, -5.14, 2.34, 1.69, 7.68, repro,
2006-04-02,-3.48, -1.88, -11.09, 2.38, 1.71, 7.79, repro,
2006-04-03,-3.68, -4.18, 6.01, 2.32, 1.68, 7.65, repro,
2006-04-04,-3.45, -2.57, -3.35, 2.31, 1.69, 7.69, repro,
2006-04-05,-5.51, -3.40, -1.57, 2.31, 1.68, 7.65, repro,
2006-04-06,-4.99, -4.07, -0.85, 2.40, 1.82, 8.02, repro,
2006-04-07,-5.89, -3.30, -2.74, 2.43, 1.74, 8.01, repro,
2006-04-08,-3.28, -3.24, -2.09, 2.39, 1.70, 7.83, repro,
2006-04-09,-3.23, -3.10, -0.25, 2.27, 1.66, 7.51, repro,
2006-04-10,-2.95, -3.78, 3.51, 2.29, 1.69, 7.68, repro,
2006-04-11,-3.76, -2.29, 0.78, 2.35, 1.71, 7.93, repro,
2006-04-12,-5.05, -2.99, -9.68, 2.36, 1.70, 7.86, repro,
2006-04-13,-5.09, -2.25, 1.46, 2.32, 1.70, 7.75, repro,
2006-04-14,-3.64, -1.07, 5.90, 2.34, 1.69, 7.74, repro,
2006-04-15,-2.69, -1.33, 5.80, 2.34, 1.72, 7.83, repro,
2006-04-16,-2.92, -3.03, 2.41, 2.33, 1.68, 7.71, repro,
2006-04-17,-4.81, -3.78, -7.13, 2.32, 1.68, 7.73, repro,
2006-04-18,-5.03, -2.63, -2.21, 2.29, 1.66, 7.63, repro,
2006-04-19,-4.48, -1.29, -1.61, 2.39, 1.70, 7.74, repro,
2006-04-20,-3.63, -1.90, -2.97, 2.41, 1.75, 7.92, repro,
2006-04-21,-3.06, -1.89, -5.39, 2.37, 1.69, 7.70, repro,
2006-04-22,-4.30, -1.98, 1.64, 2.30, 1.66, 7.69, repro,
2006-04-23,-5.54, -2.59, -7.85, 2.38, 1.76, 7.93, repro,
2006-04-24,-5.29, -1.36, -5.71, 2.37, 1.72, 7.82, repro,
2006-04-25,-5.80, -1.50, -1.78, 2.36, 1.73, 7.85, repro,
2006-04-26,-4.59, -1.45, -3.36, 2.37, 1.73, 7.92, repro,
2006-04-27,-5.03, -0.04, -5.88, 2.40, 1.72, 7.88, repro,
2006-04-28,-4.60, -0.76, -2.49, 2.37, 1.71, 7.92, repro,
2006-04-29,-4.26, -2.20, -7.10, 2.34, 1.70, 7.77, repro,
2006-04-30,-5.53, -2.21, -5.87, 2.38, 1.71, 7.80, repro,
2006-05-01,-5.52, -3.44, -7.38, 2.33, 1.70, 7.78, repro,
2006-05-02,-4.35, -0.74, -1.54, 2.30, 1.67, 7.65, repro,
2006-05-03,-4.92, -2.40, -8.63, 2.31, 1.68, 7.77, repro,
2006-05-04,-4.18, -2.68, -5.91, 2.35, 1.69, 7.83, repro,
2006-05-05,-6.51, -0.71, -3.73, 2.30, 1.69, 7.76, repro,
2006-05-06,-4.52, -2.39, 4.38, 2.31, 1.70, 7.75, repro,
2006-05-07,-4.31, -2.20, -3.02, 2.31, 1.68, 7.76, repro,
2006-05-08,-5.46, -1.65, 1.64, 2.31, 1.66, 7.67, repro,
2006-05-09,-6.82, -1.65, -9.49, 2.36, 1.71, 7.79, repro,
2006-05-10,-5.12, -1.64, -5.33, 2.31, 1.67, 7.70, repro,
2006-05-11,-5.05, -1.77, -0.44, 2.30, 1.67, 7.70, repro,
2006-05-12,-4.46, -2.11, 1.55, 2.37, 1.71, 7.89, repro,
2006-05-13,-4.48, -2.03, -9.76, 2.32, 1.67, 7.76, repro,
2006-05-14,-4.98, -0.80, -7.97, 2.29, 1.66, 7.64, repro,
2006-05-15,-5.24, -1.01, -9.12, 2.27, 1.68, 7.68, repro,
2006-05-16,-3.23, -1.55, 1.63, 2.36, 1.74, 8.06, repro,
2006-05-17,-3.91, -0.11, -1.73, 2.36, 1.70, 8.01, repro,
2006-05-18,-5.29, -1.96, 8.24, 2.34, 1.69, 7.79, repro,
2006-05-19,-4.61, -2.49, 5.52, 2.39, 1.72, 7.93, repro,
2006-05-20,-6.14, -1.45, 2.11, 2.43, 1.77, 8.14, repro,
2006-05-21,-6.93, -0.19, 7.81, 2.37, 1.73, 7.97, repro,
2006-05-22,-3.60, -0.84, 13.61, 2.41, 1.74, 8.09, repro,
2006-05-23,-3.28, -2.48, 6.46, 2.41, 1.74, 8.08, repro,
2006-05-24,-2.72, -0.30, 0.50, 2.37, 1.71, 7.84, repro,
2006-05-25,-4.90, -1.79, -9.22, 2.45, 1.78, 8.23, repro,
2006-05-26,-5.54, -3.25, -5.17, 2.48, 1.76, 8.31, repro,
2006-05-27,-4.06, -1.87, 1.61, 2.40, 1.73, 8.06, repro,
2006-05-28,-4.57, -1.69, 3.68, 2.38, 1.72, 8.00, repro,
2006-05-29,-3.83, -0.51, -1.56, 2.38, 1.74, 8.04, repro,
2006-05-30,-5.93, -0.84, -8.95, 2.38, 1.71, 7.90, repro,
2006-05-31,-6.10, -1.10, -0.47, 2.38, 1.72, 7.90, repro,
2006-06-01,-5.88, -2.10, -11.23, 2.44, 1.73, 8.01, repro,
2006-06-02,-3.60, -1.95, 3.56, 2.47, 1.77, 8.30, repro,
2006-06-03,-5.67, -2.15, 0.35, 2.49, 1.82, 8.47, repro,
2006-06-04,-3.25, 0.36, 6.83, 2.47, 1.76, 8.15, repro,
2006-06-05,-5.48, -1.71, -0.70, 2.44, 1.76, 8.13, repro,
2006-06-06,-4.39, -2.41, -0.91, 2.47, 1.75, 8.16, repro,
2006-06-07,-5.94, -2.16, -3.53, 2.43, 1.76, 8.06, repro,
2006-06-08,-4.30, -1.62, -1.73, 2.39, 1.74, 7.97, repro,
2006-06-09,-4.89, -1.37, 4.57, 2.39, 1.71, 7.88, repro,
2006-06-10,-4.85, -1.53, 1.50, 2.40, 1.73, 7.94, repro,
2006-06-11,-6.02, -0.99, -2.04, 2.35, 1.72, 7.79, repro,
2006-06-12,-5.08, -1.18, 6.75, 2.39, 1.72, 7.99, repro,
2006-06-13,-2.90, 0.08, -1.71, 2.48, 1.78, 8.28, repro,
2006-06-14,-5.83, -2.07, -5.13, 2.44, 1.74, 8.12, repro,
2006-06-15,-4.28, -1.72, 3.33, 2.42, 1.70, 7.92, repro,
2006-06-16,-5.40, -2.78, 8.39, 2.41, 1.72, 7.93, repro,
2006-06-17,-3.50, -1.13, -2.86, 2.38, 1.72, 7.90, repro,
2006-06-18,-6.57, -1.75, 4.26, 2.42, 1.79, 8.24, repro,
2006-06-19,-6.84, 0.03, -3.01, 2.50, 1.86, 8.58, repro,
2006-06-20,-6.47, -1.36, 1.28, 2.42, 1.78, 8.18, repro,
2006-06-21,-6.16, -0.75, -0.52, 2.47, 1.79, 8.13, repro,
2006-06-22,-6.60, -0.16, -7.10, 2.42, 1.79, 8.20, repro,
2006-06-23,-6.19, -1.17, -5.92, 2.42, 1.78, 8.20, repro,
2006-06-24,-5.13, -1.95, -5.52, 2.42, 1.79, 8.17, repro,
2006-06-25,-6.95, -1.34, -6.59, 2.41, 1.77, 8.04, repro,
2006-06-26,-5.13, -1.19, -2.67, 2.41, 1.77, 8.09, repro,
2006-06-27,-4.48, -2.62, -4.93, 2.41, 1.78, 8.13, repro,
2006-06-28,-6.59, -2.02, -0.50, 2.44, 1.80, 8.30, repro,
2006-06-29,-6.80, -1.08, -4.38, 2.33, 1.74, 7.94, repro,
2006-06-30,-4.53, -0.09, 1.45, 2.42, 1.74, 8.17, repro,
2006-07-01,-7.09, 0.40, -1.34, 2.37, 1.71, 8.01, repro,
2006-07-02,-6.66, -0.80, -1.80, 2.38, 1.72, 8.07, repro,
2006-07-03,-4.72, 1.19, 1.86, 2.39, 1.73, 8.16, repro,
2006-07-04,-4.29, -0.81, 0.39, 2.40, 1.74, 8.26, repro,
2006-07-05,-4.27, -0.32, -0.64, 2.39, 1.72, 8.10, repro,
2006-07-06,-5.11, -0.10, -13.96, 2.34, 1.71, 7.95, repro,
2006-07-07,-4.71, 0.74, -12.98, 2.39, 1.72, 8.12, repro,
2006-07-08,-6.01, 0.87, -6.22, 2.39, 1.76, 8.27, repro,
2006-07-09,-6.47, 0.34, 4.10, 2.38, 1.72, 8.16, repro,
2006-07-10,-5.40, 0.55, -3.36, 2.38, 1.73, 8.16, repro,
2006-07-11,-7.92, -0.45, 3.05, 2.37, 1.72, 8.06, repro,
2006-07-12,-6.45, 0.62, -0.46, 2.39, 1.72, 8.18, repro,
2006-07-13,-6.82, 0.22, -3.68, 2.39, 1.74, 8.26, repro,
2006-07-14,-5.91, 1.73, -6.90, 2.40, 1.73, 8.16, repro,
2006-07-15,-7.51, -0.15, -4.92, 2.38, 1.73, 8.14, repro,
2006-07-16,-4.65, -0.02, -0.40, 2.41, 1.75, 8.21, repro,
2006-07-17,-5.17, -0.04, -9.80, 2.39, 1.76, 8.24, repro,
2006-07-18,-6.37, 1.98, 0.14, 2.38, 1.78, 8.00, repro,
2006-07-19,-6.12, 1.22, -8.49, 2.30, 1.69, 7.80, repro,
2006-07-20,-6.42, 1.07, 3.19, 2.37, 1.74, 8.09, repro,
2006-07-21,-5.81, 0.49, 1.72, 2.35, 1.75, 8.11, repro,
2006-07-22,-5.86, -0.01, 3.79, 2.30, 1.69, 7.77, repro,
2006-07-23,-4.90, 2.31, 0.56, 2.35, 1.78, 7.93, repro,
2006-07-24,-4.61, 1.01, 4.36, 2.32, 1.70, 7.87, repro,
2006-07-25,-5.51, -0.64, -4.77, 2.34, 1.70, 7.93, repro,
2006-07-26,-5.75, 0.69, 5.24, 2.34, 1.71, 7.94, repro,
2006-07-27,-7.90, -1.01, -6.61, 2.34, 1.70, 7.88, repro,
2006-07-28,-5.94, 1.15, -4.01, 2.30, 1.68, 7.79, repro,
2006-07-29,-4.52, 0.19, -0.93, 2.32, 1.70, 7.87, repro,
2006-07-30,-4.58, 1.48, 2.27, 2.33, 1.72, 8.01, repro,
2006-07-31,-5.93, -0.00, 1.26, 2.36, 1.73, 8.02, repro,
2006-08-01,-5.31, 1.08, 8.88, 2.37, 1.71, 7.93, repro,
2006-08-02,-6.66, 2.36, 3.04, 2.40, 1.77, 8.17, repro,
2006-08-03,-4.70, 0.81, -6.81, 2.31, 1.72, 7.97, repro,
2006-08-04,-6.83, 0.80, -1.62, 2.42, 1.85, 8.41, repro,
2006-08-05,-5.53, 1.53, 3.38, 2.36, 1.77, 8.21, repro,
2006-08-06,-4.45, 2.34, 8.64, 2.37, 1.77, 8.22, repro,
2006-08-07,-6.93, 1.32, 3.64, 2.33, 1.76, 8.09, repro,
2006-08-08,-6.21, 1.25, 3.00, 2.32, 1.71, 7.94, repro,
2006-08-09,-6.23, 3.62, 9.47, 2.29, 1.69, 7.86, repro,
2006-08-10,-4.96, 1.80, 1.33, 2.28, 1.72, 7.82, repro,
2006-08-11,-6.87, 0.33, 6.48, 2.32, 1.72, 7.94, repro,
2006-08-12,-5.42, 2.54, 4.18, 2.31, 1.70, 7.87, repro,
2006-08-13,-5.53, 1.75, 2.34, 2.31, 1.69, 7.78, repro,
2006-08-14,-8.20, 1.53, 3.15, 2.30, 1.68, 7.70, repro,
2006-08-15,-5.43, 0.85, 5.64, 2.39, 1.73, 7.94, repro,
2006-08-16,-5.06, 1.79, 7.90, 2.31, 1.71, 7.86, repro,
2006-08-17,-5.90, 2.58, 5.84, 2.27, 1.69, 7.71, repro,
2006-08-18,-6.19, 2.61, -3.90, 2.35, 1.76, 8.00, repro,
2006-08-19,-5.35, 2.32, 0.17, 2.30, 1.69, 7.74, repro,
2006-08-20,-7.42, 3.29, 11.24, 2.26, 1.70, 7.69, repro,
2006-08-21,-4.68, 1.87, 5.90, 2.33, 1.73, 7.91, repro,
2006-08-22,-6.45, 3.51, 8.74, 2.33, 1.73, 7.90, repro,
2006-08-23,-5.03, 2.49, 8.64, 2.32, 1.73, 7.91, repro,
2006-08-24,-5.48, 3.25, 6.52, 2.33, 1.71, 7.82, repro,
2006-08-25,-6.31, 3.29, 10.30, 2.32, 1.76, 8.07, repro,
2006-08-26,-8.02, 1.96, 3.75, 2.37, 1.81, 8.34, repro,
2006-08-27,-7.34, 2.55, 3.37, 2.39, 1.82, 8.34, repro,
2006-08-28,-6.00, 2.72, 3.08, 2.40, 1.84, 8.43, repro,
2006-08-29,-5.77, 1.72, 4.23, 2.41, 1.84, 8.43, repro,
2006-08-30,-6.32, 2.59, -1.54, 2.37, 1.81, 8.27, repro,
2006-08-31,-8.48, 2.29, 2.22, 2.36, 1.84, 8.37, repro,
2006-09-01,-7.74, 3.23, 4.33, 2.46, 1.88, 8.51, repro,
2006-09-02,-4.85, 2.51, 3.20, 2.41, 1.82, 8.41, repro,
2006-09-03,-6.93, 2.76, 2.79, 2.37, 1.82, 8.24, repro,
2006-09-04,-5.49, 2.91, -1.59, 2.46, 1.85, 8.51, repro,
2006-09-05,-5.08, 3.22, 0.98, 2.47, 1.87, 8.60, repro,
2006-09-06,-5.41, 3.10, 0.98, 2.41, 1.86, 8.52, repro,
2006-09-07,-5.04, 1.66, 6.72, 2.53, 1.92, 8.84, repro,
2006-09-08,-6.80, 3.30, 7.93, 2.50, 1.89, 8.80, repro,
2006-09-09,-5.55, 1.68, -1.54, 2.37, 1.79, 8.14, repro,
2006-09-10,-6.56, 2.52, 6.51, 2.37, 1.82, 8.25, repro,
2006-09-11,-6.25, 2.37, 6.34, 2.39, 1.80, 8.22, repro,
2006-09-12,-3.99, 1.67, 1.61, 2.38, 1.78, 8.12, repro,
2006-09-13,-5.45, 1.27, 9.71, 2.39, 1.79, 8.22, repro,
2006-09-14,-8.31, 0.27, 9.80, 2.48, 1.85, 8.45, repro,
2006-09-15,-2.48, 3.71, 12.63, 2.40, 1.79, 8.13, repro,
2006-09-16,-5.45, 1.73, 14.31, 2.37, 1.74, 8.09, repro,
2006-09-17,-5.72, 2.69, 11.95, 2.37, 1.74, 8.12, repro,
2006-09-18,-5.81, 3.21, 12.52, 2.40, 1.77, 8.35, repro,
2006-09-19,-7.60, 2.90, 5.66, 2.34, 1.74, 8.06, repro,
2006-09-20,-5.67, 1.94, 4.85, 2.34, 1.76, 8.13, repro,
2006-09-21,-9.24, 1.78, 18.48, 2.37, 1.77, 8.18, repro,
2006-09-22,-5.80, 1.35, 2.38, 2.41, 1.82, 8.30, repro,
2006-09-23,-5.06, 2.39, 3.68, 2.38, 1.77, 8.16, repro,
2006-09-24,-7.29, 0.35, 8.00, 2.41, 1.77, 8.26, repro,
2006-09-25,-5.40, 2.77, 1.38, 2.33, 1.73, 8.02, repro,
2006-09-26,-2.58, 1.31, 0.56, 2.34, 1.73, 8.06, repro,
2006-09-27,-3.90, 2.61, -2.31, 2.34, 1.75, 8.08, repro,
2006-09-28,-4.89, 1.32, 6.70, 2.33, 1.74, 8.10, repro,
2006-09-29,-5.27, 2.40, 11.73, 2.36, 1.75, 8.26, repro,
2006-09-30,-4.10, 2.36, 14.25, 2.39, 1.78, 8.27, repro,
2006-10-01,-4.36, 2.69, 9.41, 2.35, 1.75, 8.14, repro,
2006-10-02,-6.43, 1.29, -3.36, 2.38, 1.82, 8.13, repro,
2006-10-03,-7.09, 2.63, 0.79, 2.42, 1.84, 8.34, repro,
2006-10-04,-4.71, 1.73, 0.93, 2.37, 1.75, 8.15, repro,
2006-10-05,-5.12, 2.77, 5.29, 2.40, 1.75, 8.17, repro,
2006-10-06,-5.08, 1.65, 14.96, 2.38, 1.74, 8.23, repro,
2006-10-07,-4.14, 2.22, 2.64, 2.42, 1.77, 8.24, repro,
2006-10-08,-5.94, 2.26, 1.04, 2.39, 1.78, 8.18, repro,
2006-10-09,-5.01, 0.69, 1.53, 2.34, 1.75, 8.04, repro,
2006-10-10,-4.21, 2.34, -5.83, 2.39, 1.74, 8.14, repro,
2006-10-11,-3.83, 3.47, 2.79, 2.36, 1.76, 8.20, repro,
2006-10-12,-5.24, 2.49, 1.41, 2.36, 1.74, 7.99, repro,
2006-10-13,-5.18, 1.61, 8.99, 2.31, 1.71, 7.87, repro,
2006-10-14,-5.28, 1.10, 9.06, 2.27, 1.70, 7.78, repro,
2006-10-15,-5.93, 0.92, 14.68, 2.39, 1.78, 8.34, repro,
2006-10-16,-1.12, 0.56, 17.06, 2.35, 1.75, 8.06, repro,
2006-10-17,-4.57, 2.17, 7.01, 2.33, 1.72, 7.97, repro,
2006-10-18,-5.62, 1.63, 0.86, 2.32, 1.71, 7.96, repro,
2006-10-19,-5.29, 1.20, 8.00, 2.34, 1.75, 8.13, repro,
2006-10-20,-5.06, -0.42, 3.96, 2.48, 1.87, 8.85, repro,
2006-10-21,-5.31, 2.63, -0.93, 2.47, 1.83, 8.37, repro,
2006-10-22,-6.54, 3.03, 2.57, 2.37, 1.75, 8.14, repro,
2006-10-23,-6.25, 1.06, -4.28, 2.39, 1.77, 8.20, repro,
2006-10-24,-7.18, 0.35, 2.55, 2.38, 1.78, 8.13, repro,
2006-10-25,-4.05, 1.77, 5.98, 2.41, 1.78, 8.25, repro,
2006-10-26,-2.89, 0.95, 6.02, 2.36, 1.78, 8.29, repro,
2006-10-27,-3.87, 3.45, -1.88, 2.30, 1.73, 7.88, repro,
2006-10-28,-7.07, 2.70, -2.64, 2.31, 1.70, 7.86, repro,
2006-10-29,-9.33, 1.53, 2.80, 2.27, 1.71, 7.89, repro,
2006-10-30,-7.58, 0.37, -3.87, 2.22, 1.67, 7.60, repro,
2006-10-31,-5.31, 1.65, 10.95, 2.28, 1.70, 7.84, repro,
2006-11-01,-5.60, 0.97, 5.79, 2.31, 1.71, 7.92, repro,
2006-11-02,-2.93, 2.64, 12.36, 2.33, 1.72, 7.98, repro,
2006-11-03,-5.21, 5.06, 22.26, 2.35, 1.73, 8.04, repro,
2006-11-04,-5.03, 4.39, 8.98, 2.42, 1.84, 8.36, repro,
2006-11-05,-3.38, 2.40, 4.02, 2.35, 1.75, 7.96, repro,
2006-11-06,-1.13, 2.02, 8.64, 2.30, 1.70, 7.88, repro,
2006-11-07,-1.74, 2.45, 13.44, 2.43, 1.77, 8.13, repro,
2006-11-08,-3.94, 1.45, 11.81, 2.45, 1.77, 8.21, repro,
2006-11-09,-4.06, 1.21, 8.22, 2.44, 1.77, 8.16, repro,
2006-11-10,-2.22, 2.27, -0.68, 2.37, 1.74, 7.99, repro,
2006-11-11,-1.10, 1.16, 13.61, 2.44, 1.78, 8.23, repro,
2006-11-12,-3.56, 3.59, -0.07, 2.43, 1.80, 8.14, repro,
2006-11-13,-3.98, 2.09, 11.10, 2.42, 1.81, 8.11, repro,
2006-11-14,-5.87, 2.59, 13.11, 2.28, 1.71, 7.81, repro,
2006-11-15,-2.42, 1.34, 0.95, 2.28, 1.71, 7.86, repro,
2006-11-16,-3.33, 2.15, 5.80, 2.23, 1.69, 7.74, repro,
2006-11-17,-3.63, -0.14, -3.22, 2.22, 1.70, 7.72, repro,
2006-11-18,-3.70, 1.03, -4.49, 2.25, 1.69, 7.77, repro,
2006-11-19,-0.60, 2.57, -3.53, 2.31, 1.79, 8.03, repro,
2006-11-20,-1.30, 5.46, 1.31, 2.25, 1.73, 7.89, repro,
2006-11-21,-2.50, 2.95, 8.10, 2.25, 1.72, 7.81, repro,
2006-11-22,-0.36, 2.52, -6.18, 2.27, 1.73, 7.87, repro,
2006-11-23,-2.28, 3.24, 5.80, 2.30, 1.77, 8.09, repro,
2006-11-24,-3.95, 2.34, -4.59, 2.28, 1.77, 8.09, repro,
2006-11-25,-5.37, 1.98, 4.93, 2.26, 1.71, 7.82, repro,
2006-11-26,-3.32, 3.20, 0.23, 2.25, 1.71, 7.82, repro,
2006-11-27,-4.58, 2.13, -12.56, 2.32, 1.75, 7.96, repro,
2006-11-28,-4.66, 2.70, -10.93, 2.27, 1.72, 7.88, repro,
2006-11-29,-3.37, 2.61, -3.69, 2.23, 1.70, 7.75, repro,
2006-11-30,-5.74, 3.61, 0.25, 2.27, 1.70, 7.88, repro,
2006-12-01,-6.07, 2.32, -9.09, 2.24, 1.71, 7.76, repro,
2006-12-02,-5.24, 2.08, -16.49, 2.25, 1.72, 7.76, repro,
2006-12-03,-6.21, 2.49, -13.89, 2.28, 1.71, 7.79, repro,
2006-12-04,-6.10, 1.55, -5.57, 2.33, 1.72, 7.83, repro,
2006-12-05,-5.99, 2.18, -13.67, 2.27, 1.72, 7.79, repro,
2006-12-06,-4.47, 1.82, -11.61, 2.29, 1.76, 7.94, repro,
2006-12-07,-5.66, 1.75, -9.59, 2.27, 1.73, 7.80, repro,
2006-12-08,-6.20, 2.71, -7.23, 2.34, 1.78, 8.05, repro,
2006-12-09,-4.27, 2.00, 5.17, 2.32, 1.79, 8.06, repro,
2006-12-10,-3.65, 0.72, 1.46, 2.38, 1.77, 8.06, repro,
2006-12-11,-5.10, 0.67, -0.71, 2.25, 1.72, 7.66, repro,
2006-12-12,-3.87, 2.71, -4.14, 2.33, 1.79, 8.06, repro,
2006-12-13,-2.59, 2.94, 0.40, 2.26, 1.74, 7.86, repro,
2006-12-14,-3.80, 2.10, -1.52, 2.28, 1.76, 7.95, repro,
2006-12-15,-5.52, 2.47, 1.79, 2.37, 1.84, 8.26, repro,
2006-12-16,-5.55, 1.49, -2.97, 2.30, 1.76, 7.78, repro,
2006-12-17,-3.75, 1.90, -10.69, 2.30, 1.83, 8.14, repro,
2006-12-18,-4.81, 2.06, -8.26, 2.43, 1.98, 8.70, repro,
2006-12-19,-5.05, 2.17, -11.19, 2.33, 1.89, 8.34, repro,
2006-12-20,-4.47, 1.67, -13.94, 2.28, 1.78, 7.91, repro,
2006-12-21,-5.03, 5.11, -18.64, 2.24, 1.76, 7.81, repro,
2006-12-22,-5.49, 0.93, -7.71, 2.33, 1.81, 8.13, repro,
2006-12-23,-5.51, 1.42, -8.21, 2.32, 1.85, 8.18, repro,
2006-12-24,-5.74, 3.96, -1.90, 2.67, 2.21, 9.48, repro,
2006-12-25,-2.64, 3.12, -11.17, 2.28, 1.75, 7.84, repro,
2006-12-26,-4.10, 2.47, -9.53, 2.29, 1.78, 7.86, repro,
2006-12-27,-5.27, 2.09, -0.97, 2.32, 1.82, 8.07, repro,
2006-12-28,-5.98, 2.84, -7.01, 2.39, 1.94, 8.68, repro,
2006-12-29,-6.20, -2.40, -27.98, 2.31, 1.85, 8.33, repro,
2006-12-30,-4.23, 1.11, -14.74, 2.31, 1.82, 8.04, repro,
2006-12-31,-3.68, 1.22, -24.44, 2.35, 1.88, 8.39, repro,
2007-01-01,-7.75, 2.34, -7.01, 2.40, 1.90, 8.44, repro,
2007-01-02,-8.78, 6.79, -7.13, 2.37, 1.89, 8.52, repro,
2007-01-03,-4.59, 2.53, -1.32, 2.25, 1.76, 7.92, repro,
2007-01-04,-7.33, 2.74, -6.97, 2.27, 1.77, 7.92, repro,
2007-01-05,-6.82, 0.18, -18.58, 2.29, 1.76, 7.84, repro,
2007-01-06,-6.42, 3.16, -9.03, 2.26, 1.82, 7.96, repro,
2007-01-07,-6.28, 2.46, -18.36, 2.31, 1.77, 7.96, repro,
2007-01-08,-5.92, 2.29, -22.09, 2.33, 1.82, 8.02, repro,
2007-01-09,-3.99, 0.93, -23.09, 2.31, 1.75, 7.96, repro,
2007-01-10,-7.52, 4.22, -9.71, 2.32, 1.73, 7.76, repro,
2007-01-11,-2.21, 2.40, -18.52, 2.41, 1.76, 8.00, repro,
2007-01-12,-6.40, 1.31, -16.92, 2.23, 1.68, 7.60, repro,
2007-01-13,-5.53, 2.71, -10.61, 2.28, 1.74, 7.80, repro,
2007-01-14,-5.12, 2.00, -17.98, 2.23, 1.68, 7.61, repro,
2007-01-15,-3.99, 2.90, -17.08, 2.25, 1.70, 7.73, repro,
2007-01-16,-4.56, 1.72, -9.52, 2.24, 1.69, 7.58, repro,
2007-01-17,-5.97, 0.62, -14.05, 2.20, 1.67, 7.44, repro,
2007-01-18,-6.01, 2.20, -17.22, 2.24, 1.72, 7.66, repro,
2007-01-19,-5.79, 0.83, -11.52, 2.31, 1.71, 7.88, repro,
2007-01-20,-4.20, 3.28, -9.12, 2.30, 1.72, 7.89, repro,
2007-01-21,-5.05, 3.64, -14.46, 2.21, 1.67, 7.55, repro,
2007-01-22,-5.20, 1.76, -8.30, 2.21, 1.66, 7.47, repro,
2007-01-23,-3.70, 3.41, -21.07, 2.27, 1.67, 7.57, repro,
2007-01-24,-4.90, 3.11, -9.57, 2.22, 1.68, 7.46, repro,
2007-01-25,-6.02, 1.20, -21.07, 2.33, 1.73, 7.78, repro,
2007-01-26,-5.56, 2.04, -12.10, 2.25, 1.69, 7.56, repro,
2007-01-27,-6.16, 3.42, -11.34, 2.23, 1.66, 7.49, repro,
2007-01-28,-4.18, 3.30, -4.15, 2.23, 1.67, 7.50, repro,
2007-01-29,-3.73, 3.56, -9.46, 2.22, 1.66, 7.47, repro,
2007-01-30,-3.45, 3.76, -2.73, 2.23, 1.68, 7.55, repro,
2007-01-31,-5.80, 2.58, -2.86, 2.22, 1.67, 7.45, repro,
2007-02-01,-4.04, 3.17, -1.78, 2.26, 1.72, 7.74, repro,
2007-02-02,-2.95, 3.81, -2.66, 2.25, 1.69, 7.63, repro,
2007-02-03,-5.20, 3.96, -5.36, 2.26, 1.70, 7.62, repro,
2007-02-04,-5.95, 1.97, -7.08, 2.20, 1.67, 7.48, repro,
2007-02-05,-4.15, 4.00, -10.43, 2.23, 1.66, 7.46, repro,
2007-02-06,-4.11, 3.11, -10.19, 2.29, 1.76, 7.67, repro,
2007-02-07,-1.84, 2.97, -4.59, 2.21, 1.69, 7.60, repro,
2007-02-08,-2.10, 2.97, -12.21, 2.24, 1.74, 7.75, repro,
2007-02-09,-2.93, 4.38, -6.74, 2.25, 1.74, 7.78, repro,
2007-02-10,-4.25, 2.18, -5.92, 2.53, 1.84, 8.29, repro,
2007-02-11,-2.27, 3.51, 2.37, 2.21, 1.69, 7.48, repro,
2007-02-12,-4.11, 2.01, -5.74, 2.22, 1.69, 7.49, repro,
2007-02-13,-4.01, 3.59, -11.78, 2.19, 1.67, 7.43, repro,
2007-02-14,-3.80, 3.27, -14.89, 2.19, 1.67, 7.43, repro,
2007-02-15,-2.67, 3.95, -6.15, 2.25, 1.69, 7.64, repro,
2007-02-16,-4.49, 1.50, -0.58, 2.25, 1.69, 7.63, repro,
2007-02-17,-2.29, 2.71, -5.55, 2.31, 1.73, 7.86, repro,
2007-02-18,-4.84, 4.93, 1.43, 2.22, 1.69, 7.61, repro,
2007-02-19,-5.66, 3.33, 2.71, 2.20, 1.69, 7.55, repro,
2007-02-20,-4.41, 5.56, 11.06, 2.26, 1.70, 7.67, repro,
2007-02-21,-3.62, 1.63, -5.44, 2.25, 1.70, 7.68, repro,
2007-02-22,-2.22, 2.87, -7.88, 2.22, 1.69, 7.53, repro,
2007-02-23,-3.68, 2.53, -4.71, 2.30, 1.78, 7.87, repro,
2007-02-24,-3.23, 2.70, 4.58, 2.22, 1.70, 7.58, repro,
2007-02-25,-4.50, 0.89, 5.21, 2.25, 1.72, 7.79, repro,
2007-02-26,-3.19, 2.29, 5.56, 2.25, 1.68, 7.57, repro,
2007-02-27,-2.15, 2.68, 2.68, 2.27, 1.68, 7.59, repro,
2007-02-28,-5.95, 3.88, -4.57, 2.25, 1.71, 7.63, repro,
2007-03-01,-7.17, 3.86, -4.98, 2.28, 1.76, 7.75, repro,
2007-03-02,-5.87, 1.97, -0.09, 2.29, 1.76, 7.76, repro,
2007-03-03,-6.46, 1.60, -5.32, 2.27, 1.75, 7.75, repro,
2007-03-04,-4.65, 2.62, -2.11, 2.29, 1.72, 7.71, repro,
2007-03-05,-5.00, 2.08, -3.40, 2.30, 1.73, 7.77, repro,
2007-03-06,-5.55, 2.61, -4.14, 2.28, 1.75, 7.70, repro,
2007-03-07,-2.77, 2.26, 6.65, 2.29, 1.76, 7.80, repro,
2007-03-08,-4.58, 2.17, 4.60, 2.33, 1.82, 8.02, repro,
2007-03-09,-3.56, 2.29, 1.67, 2.27, 1.71, 7.59, repro,
2007-03-10,-5.18, 1.31, 6.52, 2.37, 1.77, 7.99, repro,
2007-03-11,-0.39, 5.88, 7.73, 2.29, 1.74, 7.73, repro,
2007-03-12,-5.24, 3.85, -5.01, 2.28, 1.74, 7.61, repro,
2007-03-13,-4.31, 0.90, -7.17, 2.27, 1.71, 7.64, repro,
2007-03-14,-6.54, 1.55, -1.38, 2.31, 1.71, 7.64, repro,
2007-03-15,-4.71, 2.71, -10.07, 2.29, 1.69, 7.62, repro,
2007-03-16,-7.20, 1.63, -4.34, 2.31, 1.70, 7.72, repro,
2007-03-17,-7.19, 0.40, -8.08, 2.42, 1.87, 8.26, repro,
2007-03-18,-5.70, 1.13, -4.09, 2.24, 1.68, 7.45, repro,
2007-03-19,-6.43, 1.88, 8.18, 2.27, 1.70, 7.58, repro,
2007-03-20,-5.42, 4.43, 11.38, 2.34, 1.72, 7.66, repro,
2007-03-21,-7.28, 2.43, 0.64, 3.05, 2.19, 9.87, repro,
2007-03-22,-5.17, 2.56, 0.51, 2.24, 1.68, 7.49, repro,
2007-03-23,-6.09, 1.70, 0.05, 2.24, 1.67, 7.41, repro,
2007-03-24,-5.28, 2.27, 2.80, 2.22, 1.65, 7.38, repro,
2007-03-25,-4.77, -0.62, 7.56, 2.26, 1.68, 7.56, repro,
2007-03-26,-7.23, 1.21, -7.29, 2.27, 1.67, 7.57, repro,
2007-03-27,-8.26, 1.37, 9.24, 2.32, 1.72, 7.84, repro,
2007-03-28,-4.62, 2.91, -3.24, 2.31, 1.68, 7.68, repro,
2007-03-29,-5.33, 3.34, -5.02, 2.23, 1.66, 7.53, repro,
2007-03-30,-6.13, 3.57, 1.94, 2.25, 1.68, 7.67, repro,
2007-03-31,-3.58, 1.91, -6.15, 2.27, 1.68, 7.66, repro,
2007-04-01,-4.61, 1.95, -0.68, 2.26, 1.67, 7.58, repro,
2007-04-02,-4.81, 1.67, -4.22, 2.28, 1.67, 7.61, repro,
2007-04-03,-2.60, 3.14, -5.04, 2.22, 1.65, 7.41, repro,
2007-04-04,-5.59, 3.62, -5.93, 2.24, 1.66, 7.48, repro,
2007-04-05,-3.91, 2.38, -5.01, 2.31, 1.71, 7.77, repro,
2007-04-06,-5.63, 2.95, -9.60, 2.35, 1.76, 7.89, repro,
2007-04-07,-4.99, 1.38, -5.86, 2.28, 1.67, 7.60, repro,
2007-04-08,-2.77, 3.04, -8.10, 2.27, 1.66, 7.54, repro,
2007-04-09,-3.38, 5.94, -4.60, 2.27, 1.68, 7.65, repro,
2007-04-10,-4.72, 3.43, 3.53, 2.31, 1.69, 7.62, repro,
2007-04-11,-4.38, 4.07, 2.29, 2.29, 1.68, 7.64, repro,
2007-04-12,-5.20, 2.34, -0.32, 2.27, 1.68, 7.57, repro,
2007-04-13,-3.22, 2.59, 1.12, 2.27, 1.68, 7.56, repro,
2007-04-14,-5.19, 2.53, -4.31, 2.26, 1.69, 7.57, repro,
2007-04-15,-5.75, 4.27, 1.06, 2.26, 1.66, 7.46, repro,
2007-04-16,-3.67, 3.27, -4.28, 2.27, 1.66, 7.51, repro,
2007-04-17,-5.45, 0.79, -6.98, 2.29, 1.69, 7.64, repro,
2007-04-18,-5.91, 0.04, -6.04, 2.30, 1.69, 7.66, repro,
2007-04-19,-3.19, 2.69, -13.20, 2.32, 1.73, 7.74, repro,
2007-04-20,-5.77, 1.89, -6.84, 2.28, 1.67, 7.61, repro,
2007-04-21,-5.01, 1.65, -7.85, 2.26, 1.65, 7.44, repro,
2007-04-22,-4.67, 2.37, -5.55, 2.26, 1.67, 7.55, repro,
2007-04-23,-4.84, 2.32, -4.33, 2.35, 1.70, 7.78, repro,
2007-04-24,-3.96, 4.25, -10.74, 2.31, 1.72, 7.76, repro,
2007-04-25,-4.13, 4.59, -2.48, 2.29, 1.69, 7.60, repro,